Location: Newark
(33.4133°N, 82.3847°W)
Time: 22:46:07
(UTC+00:00)

Hubble Space Telescope - Pass Details

Date: 01 February 2020
Orbit: 536 x 540 km, 28.5° (Epoch: 19 February)

Event Time Altitude Azimuth Distance (km) Brightness Sun altitude
Exits shadow 11:35:58 - 244° (WSW) 1,880 3.1 -10.8°
Reaches altitude 10° 11:36:15 10° 243° (WSW) 1,776 3.0 -10.7°
Maximum altitude 11:40:05 39° 174° (S) 812 1.9 -10.0°
Drops below altitude 10° 11:43:56 10° 105° (ESE) 1,779 5.1 -9.2°
Sets 11:46:17 0° 98° (E) 2,670 6.6 -8.7°
